COSMOS 2162

导读 | 豆包AI

COSMOS 2162是独联体(CIS)1991年9月28日发射的“宇宙”系列卫星。该系列卫星多数承担军事任务,部分搭载科学实验载荷。作为苏联解体后独联体早期航天活动的一部分,它延续了苏联“宇宙”卫星的保密传统,具体任务细节未公开。作为低轨卫星,它完成既定使命后已退役,成为空间碎片,见证了后苏联时代航天转型的开端,是独联体时期航天活动的典型见证。

基本信息
目录编号:
21733
目录名称:
COSMOS 2162
国际标识:
1991-068F
轨道中心:
EARTH
卫星名称:
COSMOS 2162
卫星全名:
--
卫星状态:
在轨 (已飞行12576 天)
发射日期:
1991-09-28 UTC
国别 :
俄罗斯(独联体) (CIS)
星等 :
--
轨道信息
数据来源 国际轨道数据
星历时间: 2026-03-04T06:45:42+0800
7小时前
查看轨道信息
半长轴: 7791.041km
偏心率: 0.0008083
轨道倾角: 82.587°
近地点辐角 93.266°
升交点赤经 46.632°
平近点角 294.516°
近地点: 1406.606km
远地点: 1419.202km
周期: 114.065分钟
每日圈数: 12.624366
详细信息
使用方式:
暂无
2D轨道图
3D轨道图
轨道高度分析图
轨道倾角分析图
轨道综合分析图
查看轨道综合分析图